CSZ9706 ZSQD-ZYTX

Flight info

Callsign CSZ9706
Flight time 1h 8m
Altitude 37100
Route TEK81D TEKAM W172 IGDEG W173 NIXEP W8 DOBGA W202 UDETI A588 TOSID TOS72A
Aircraft B738/M-SDE2E3FGHIRWXY/LB1

Departure

Time 2026-04-17 04:06
Airport Qingdao Jiaodong International Airport (ZSQD)

Arrival

Time 2026-04-17 05:15
Airport Shenyang Taoxian International Airport (ZYTX)
Time Latitude Longitude Altitude Speed Heading
2026-04-17 03:54 36.36214 120.08118 38 ft 0 kts 11°
2026-04-17 04:00 36.36209 120.08117 37 ft 2 kts 11°
2026-04-17 04:00 36.36193 120.08113 36 ft 2 kts
2026-04-17 04:00 36.36176 120.08112 36 ft 2 kts 351°
2026-04-17 04:01 36.36163 120.08122 36 ft 2 kts 287°
2026-04-17 04:01 36.36161 120.08129 38 ft 0 kts 283°
2026-04-17 04:02 36.36165 120.08108 36 ft 5 kts 283°
2026-04-17 04:02 36.36176 120.08035 38 ft 12 kts 274°
2026-04-17 04:02 36.36158 120.07909 38 ft 18 kts 262°
2026-04-17 04:03 36.36253 120.07812 38 ft 22 kts 343°
2026-04-17 04:03 36.36415 120.07750 38 ft 27 kts 341°
2026-04-17 04:03 36.36597 120.07676 38 ft 27 kts 342°
2026-04-17 04:03 36.36771 120.07606 39 ft 26 kts 342°
2026-04-17 04:04 36.36936 120.07543 38 ft 24 kts 342°
2026-04-17 04:04 36.37090 120.07482 39 ft 23 kts 344°
2026-04-17 04:04 36.37174 120.07365 39 ft 20 kts 252°
2026-04-17 04:04 36.37111 120.07218 37 ft 19 kts 223°
2026-04-17 04:05 36.37012 120.07202 37 ft 0 kts 161°
2026-04-17 04:05 36.36951 120.07227 37 ft 35 kts 162°
2026-04-17 04:05 36.36509 120.07400 41 ft 99 kts 162°
2026-04-17 04:05 36.35676 120.07727 38 ft 150 kts 162°
2026-04-17 04:06 36.34562 120.08155 202 ft 179 kts 162°
2026-04-17 04:06 36.33384 120.08600 950 ft 172 kts 163°
2026-04-17 04:06 36.32260 120.09033 1653 ft 174 kts 162°
2026-04-17 04:06 36.31018 120.09531 1907 ft 200 kts 162°
2026-04-17 04:07 36.29620 120.10087 2112 ft 221 kts 162°
2026-04-17 04:07 36.28127 120.10781 2344 ft 236 kts 150°
2026-04-17 04:07 36.26941 120.12213 2728 ft 243 kts 121°
2026-04-17 04:07 36.26380 120.14183 3013 ft 256 kts 96°
2026-04-17 04:08 36.26508 120.16417 3408 ft 266 kts 73°
2026-04-17 04:08 36.27084 120.18600 4151 ft 266 kts 70°
2026-04-17 04:08 36.27660 120.20786 4900 ft 268 kts 70°
2026-04-17 04:08 36.28237 120.23001 5612 ft 270 kts 69°
2026-04-17 04:09 36.28810 120.25223 6374 ft 271 kts 68°
2026-04-17 04:09 36.29383 120.27454 7110 ft 273 kts 68°
2026-04-17 04:09 36.29962 120.29712 7809 ft 277 kts 68°
2026-04-17 04:09 36.30676 120.31920 8487 ft 276 kts 52°
2026-04-17 04:10 36.32085 120.33444 9219 ft 269 kts 22°
2026-04-17 04:10 36.33863 120.33993 9985 ft 269 kts
2026-04-17 04:10 36.35748 120.33740 10416 ft 283 kts 345°
2026-04-17 04:10 36.37707 120.32989 10591 ft 306 kts 342°
2026-04-17 04:11 36.39795 120.32118 10851 ft 324 kts 342°
2026-04-17 04:11 36.41973 120.31273 11414 ft 331 kts 347°
2026-04-17 04:11 36.44276 120.31257 12077 ft 337 kts 12°
2026-04-17 04:11 36.46531 120.32110 12820 ft 341 kts 15°
2026-04-17 04:12 36.48813 120.32988 13471 ft 347 kts 14°
2026-04-17 04:12 36.51103 120.33863 14117 ft 352 kts 14°
2026-04-17 04:12 36.53457 120.34763 14769 ft 356 kts 14°
2026-04-17 04:12 36.55840 120.35675 15428 ft 360 kts 14°
2026-04-17 04:13 36.58251 120.36597 16083 ft 365 kts 13°
2026-04-17 04:13 36.60691 120.37530 16755 ft 369 kts 13°
2026-04-17 04:13 36.63163 120.38476 17376 ft 374 kts 13°
2026-04-17 04:13 36.65671 120.39435 17988 ft 380 kts 13°
2026-04-17 04:14 36.68219 120.40410 18553 ft 386 kts 13°
2026-04-17 04:14 36.70800 120.41399 19072 ft 390 kts 13°
2026-04-17 04:14 36.73369 120.42385 19633 ft 394 kts 13°
2026-04-17 04:14 36.76001 120.43396 20183 ft 398 kts 13°
2026-04-17 04:15 36.78659 120.44418 20742 ft 401 kts 13°
2026-04-17 04:15 36.81332 120.45445 21314 ft 404 kts 13°
2026-04-17 04:15 36.84033 120.46483 21821 ft 408 kts 13°
2026-04-17 04:15 36.86762 120.47533 22313 ft 413 kts 13°
2026-04-17 04:16 36.89519 120.48594 22808 ft 417 kts 13°
2026-04-17 04:16 36.92299 120.49665 23298 ft 421 kts 13°
2026-04-17 04:16 36.95106 120.50748 23749 ft 424 kts 12°
2026-04-17 04:16 36.97943 120.51844 24145 ft 428 kts 12°
2026-04-17 04:17 37.00761 120.52934 24541 ft 431 kts 12°
2026-04-17 04:17 37.03637 120.54047 24932 ft 434 kts 12°
2026-04-17 04:17 37.06532 120.55168 25310 ft 438 kts 12°
2026-04-17 04:17 37.09454 120.56301 25677 ft 441 kts 12°
2026-04-17 04:18 37.12401 120.57444 26043 ft 445 kts 12°
2026-04-17 04:18 37.15365 120.58595 26434 ft 448 kts 12°
2026-04-17 04:18 37.18343 120.59753 26871 ft 449 kts 12°
2026-04-17 04:18 37.21332 120.60916 27208 ft 452 kts 12°
2026-04-17 04:19 37.24313 120.62076 27510 ft 456 kts 12°
2026-04-17 04:19 37.27353 120.63260 27837 ft 459 kts 12°
2026-04-17 04:19 37.30416 120.64455 28169 ft 462 kts 11°
2026-04-17 04:19 37.33492 120.65655 28516 ft 465 kts 11°
2026-04-17 04:20 37.36586 120.66865 28914 ft 466 kts 12°
2026-04-17 04:20 37.39686 120.68078 29231 ft 468 kts 11°
2026-04-17 04:20 37.42816 120.69302 29498 ft 472 kts 11°
2026-04-17 04:20 37.45959 120.70533 29775 ft 475 kts 11°
2026-04-17 04:21 37.49125 120.71774 30064 ft 478 kts 11°
2026-04-17 04:21 37.52263 120.73003 30331 ft 479 kts 12°
2026-04-17 04:21 37.55438 120.74246 30717 ft 476 kts 12°
2026-04-17 04:21 37.58600 120.75482 31056 ft 475 kts 10°
2026-04-17 04:22 37.61808 120.76353 31290 ft 470 kts
2026-04-17 04:22 37.65046 120.76732 31589 ft 466 kts 357°
2026-04-17 04:22 37.68280 120.76953 31931 ft 464 kts 356°
2026-04-17 04:22 37.71505 120.77175 32305 ft 464 kts 357°
2026-04-17 04:23 37.74687 120.77448 32664 ft 464 kts 358°
2026-04-17 04:23 37.77898 120.77782 33043 ft 463 kts 358°
2026-04-17 04:23 37.81107 120.78153 33331 ft 464 kts 359°
2026-04-17 04:23 37.84323 120.78541 33603 ft 465 kts 359°
2026-04-17 04:24 37.87542 120.78933 33909 ft 464 kts 359°
2026-04-17 04:24 37.90757 120.79323 34203 ft 463 kts 358°
2026-04-17 04:24 37.93960 120.79707 34529 ft 462 kts 358°
2026-04-17 04:24 37.97150 120.80101 34800 ft 462 kts
2026-04-17 04:25 38.00299 120.80904 34951 ft 474 kts 10°
2026-04-17 04:25 38.03402 120.82438 35163 ft 484 kts 20°
2026-04-17 04:25 38.06340 120.84588 35437 ft 488 kts 25°
2026-04-17 04:25 38.09221 120.86848 35709 ft 487 kts 25°
2026-04-17 04:26 38.12111 120.89092 36002 ft 486 kts 25°
2026-04-17 04:26 38.15005 120.91295 36240 ft 485 kts 24°
2026-04-17 04:26 38.17910 120.93477 36413 ft 486 kts 24°
2026-04-17 04:27 38.23251 120.97961 36651 ft 501 kts 37°
2026-04-17 04:27 38.25579 121.01240 36813 ft 511 kts 50°
2026-04-17 04:27 38.27415 121.05130 37062 ft 516 kts 63°
2026-04-17 04:28 38.30242 121.13584 37079 ft 521 kts 65°
2026-04-17 04:28 38.33079 121.22059 37063 ft 517 kts 64°
2026-04-17 04:29 38.35961 121.30421 37073 ft 516 kts 63°
2026-04-17 04:29 38.38842 121.38745 37079 ft 518 kts 64°
2026-04-17 04:30 38.41752 121.47143 37078 ft 518 kts 62°
2026-04-17 04:30 38.44982 121.55362 37069 ft 518 kts 59°
2026-04-17 04:31 38.48329 121.63496 37111 ft 518 kts 59°
2026-04-17 04:31 38.51623 121.71628 37084 ft 519 kts 60°
2026-04-17 04:32 38.54903 121.79855 37076 ft 520 kts 60°
2026-04-17 04:32 38.58168 121.88082 37077 ft 519 kts 60°
2026-04-17 04:33 38.61429 121.96310 37074 ft 519 kts 60°
2026-04-17 04:33 38.64665 122.04492 37083 ft 519 kts 60°
2026-04-17 04:34 38.70389 122.16063 37090 ft 507 kts 39°
2026-04-17 04:34 38.75881 122.21491 37090 ft 493 kts 23°
2026-04-17 04:35 38.81798 122.25971 37086 ft 495 kts 24°
2026-04-17 04:35 38.87633 122.30571 37105 ft 497 kts 25°
2026-04-17 04:36 38.93523 122.35255 37070 ft 498 kts 25°
2026-04-17 04:36 38.99426 122.39936 37081 ft 498 kts 25°
2026-04-17 04:37 39.05329 122.44625 37085 ft 499 kts 25°
2026-04-17 04:37 39.11200 122.49302 37076 ft 500 kts 25°
2026-04-17 04:38 39.17113 122.54023 37074 ft 500 kts 25°
2026-04-17 04:38 39.23022 122.58750 37072 ft 500 kts 25°
2026-04-17 04:39 39.28938 122.63450 37062 ft 498 kts 24°
2026-04-17 04:39 39.34973 122.67757 37093 ft 495 kts 21°
2026-04-17 04:40 39.40994 122.71931 37069 ft 495 kts 22°
2026-04-17 04:40 39.47036 122.76194 37065 ft 494 kts 22°
2026-04-17 04:41 39.53059 122.80504 37063 ft 495 kts 23°
2026-04-17 04:41 39.59074 122.84828 37066 ft 494 kts 23°
2026-04-17 04:42 39.65039 122.89123 37063 ft 493 kts 22°
2026-04-17 04:42 39.71042 122.93449 37043 ft 494 kts 23°
2026-04-17 04:43 39.77040 122.97781 37052 ft 493 kts 23°
2026-04-17 04:43 39.83032 123.02116 37056 ft 493 kts 23°
2026-04-17 04:44 39.88983 123.06420 37050 ft 492 kts 23°
2026-04-17 04:44 39.94956 123.10761 37036 ft 491 kts 23°
2026-04-17 04:45 40.00920 123.15114 37044 ft 491 kts 23°
2026-04-17 04:45 40.06875 123.19450 37043 ft 489 kts 23°
2026-04-17 04:46 40.12792 123.23701 37038 ft 488 kts 22°
2026-04-17 04:46 40.18743 123.27969 37037 ft 487 kts 22°
2026-04-17 04:47 40.24672 123.32240 37024 ft 486 kts 22°
2026-04-17 04:47 40.30611 123.36531 36537 ft 491 kts 23°
2026-04-17 04:48 40.33588 123.38687 36015 ft 488 kts 23°
2026-04-17 04:48 40.36558 123.40841 35368 ft 487 kts 24°
2026-04-17 04:48 40.39523 123.42994 34734 ft 487 kts 24°
2026-04-17 04:48 40.42443 123.45116 34095 ft 486 kts 25°
2026-04-17 04:49 40.45403 123.47268 33279 ft 487 kts 25°
2026-04-17 04:49 40.48353 123.49417 32700 ft 482 kts 25°
2026-04-17 04:49 40.51259 123.51536 31920 ft 479 kts 25°
2026-04-17 04:49 40.54184 123.53671 31231 ft 478 kts 25°
2026-04-17 04:50 40.57075 123.55780 30694 ft 473 kts 25°
2026-04-17 04:50 40.59891 123.57991 30162 ft 471 kts 30°
2026-04-17 04:50 40.62509 123.60564 29582 ft 468 kts 35°
2026-04-17 04:50 40.65004 123.63268 29017 ft 462 kts 36°
2026-04-17 04:51 40.67447 123.65970 28495 ft 456 kts 36°
2026-04-17 04:51 40.69841 123.68572 27976 ft 449 kts 35°
2026-04-17 04:51 40.72266 123.71141 27470 ft 444 kts 34°
2026-04-17 04:51 40.74666 123.73648 26929 ft 439 kts 34°
2026-04-17 04:52 40.77055 123.76125 26419 ft 434 kts 34°
2026-04-17 04:52 40.79417 123.78570 25907 ft 430 kts 34°
2026-04-17 04:52 40.81753 123.80999 25419 ft 425 kts 34°
2026-04-17 04:52 40.84069 123.83410 24918 ft 422 kts 34°
2026-04-17 04:53 40.86362 123.85792 24436 ft 418 kts 34°
2026-04-17 04:53 40.88602 123.88132 23957 ft 415 kts 34°
2026-04-17 04:53 40.90855 123.90480 23441 ft 412 kts 33°
2026-04-17 04:55 41.07611 124.02503 19991 ft 376 kts 23°
2026-04-17 04:55 41.09891 124.04177 19529 ft 373 kts 24°
2026-04-17 04:55 41.12122 124.05806 19086 ft 369 kts 23°
2026-04-17 04:56 41.14366 124.07435 18638 ft 366 kts 23°
2026-04-17 04:56 41.16598 124.09043 18205 ft 364 kts 23°
2026-04-17 04:56 41.18811 124.10654 17684 ft 362 kts 23°
2026-04-17 04:56 41.21015 124.12244 17218 ft 359 kts 23°
2026-04-17 04:57 41.23196 124.13820 16765 ft 355 kts 23°
2026-04-17 04:57 41.25352 124.15389 16296 ft 352 kts 23°
2026-04-17 04:57 41.27489 124.16939 15886 ft 348 kts 23°
2026-04-17 04:57 41.29579 124.18454 15442 ft 346 kts 23°
2026-04-17 04:58 41.31678 124.19976 15015 ft 342 kts 22°
2026-04-17 04:58 41.33766 124.21482 14578 ft 341 kts 23°
2026-04-17 04:58 41.35842 124.22991 14166 ft 338 kts 23°
2026-04-17 04:58 41.37898 124.24487 13715 ft 337 kts 23°
2026-04-17 04:59 41.39968 124.25994 12980 ft 342 kts 23°
2026-04-17 04:59 41.42070 124.27521 12403 ft 343 kts 23°
2026-04-17 04:59 41.44243 124.28677 11884 ft 332 kts
2026-04-17 04:59 41.46430 124.28460 11540 ft 314 kts 339°
2026-04-17 05:00 41.48398 124.27313 11305 ft 306 kts 327°
2026-04-17 05:00 41.50070 124.25606 11051 ft 304 kts 314°
2026-04-17 05:00 41.51570 124.23601 10732 ft 306 kts 313°
2026-04-17 05:00 41.53021 124.21620 10651 ft 292 kts 312°
2026-04-17 05:01 41.54422 124.19716 10503 ft 281 kts 312°
2026-04-17 05:01 41.55765 124.17888 10390 ft 271 kts 313°
2026-04-17 05:01 41.57074 124.16124 10280 ft 262 kts 312°
2026-04-17 05:01 41.58321 124.14447 10180 ft 254 kts 313°
2026-04-17 05:02 41.59548 124.12804 10072 ft 245 kts 312°
2026-04-17 05:02 41.60734 124.11219 9903 ft 239 kts 313°
2026-04-17 05:02 41.61909 124.09654 9644 ft 237 kts 312°
2026-04-17 05:02 41.63069 124.08095 9364 ft 236 kts 312°
2026-04-17 05:03 41.64224 124.06543 9099 ft 235 kts 311°
2026-04-17 05:03 41.65371 124.04994 8823 ft 234 kts 311°
2026-04-17 05:03 41.66513 124.03458 8552 ft 233 kts 311°
2026-04-17 05:03 41.67651 124.01934 8305 ft 237 kts 311°
2026-04-17 05:04 41.68832 124.00347 8039 ft 244 kts 311°
2026-04-17 05:04 41.70045 123.98718 7757 ft 250 kts 310°
2026-04-17 05:04 41.71274 123.97062 7464 ft 251 kts 310°
2026-04-17 05:04 41.72479 123.95383 7240 ft 248 kts 307°
2026-04-17 05:05 41.73672 123.93745 7098 ft 243 kts 311°
2026-04-17 05:05 41.74865 123.92183 6992 ft 236 kts 310°
2026-04-17 05:05 41.76016 123.90655 6867 ft 230 kts 310°
2026-04-17 05:05 41.77126 123.89170 6765 ft 222 kts 310°
2026-04-17 05:06 41.78203 123.87731 6610 ft 217 kts 310°
2026-04-17 05:06 41.79321 123.86401 6405 ft 217 kts 313°
2026-04-17 05:06 41.80462 123.85091 6164 ft 215 kts 312°
2026-04-17 05:06 41.81599 123.83777 5971 ft 218 kts 313°
2026-04-17 05:07 41.82754 123.82438 5716 ft 220 kts 312°
2026-04-17 05:07 41.83712 123.80923 5502 ft 208 kts 285°
2026-04-17 05:07 41.83716 123.79118 5340 ft 191 kts 242°
2026-04-17 05:07 41.82886 123.77813 5181 ft 181 kts 225°
2026-04-17 05:08 41.82132 123.76512 4972 ft 175 kts 239°
2026-04-17 05:08 41.81493 123.75159 4759 ft 174 kts 231°
2026-04-17 05:08 41.80720 123.73910 4574 ft 175 kts 231°
2026-04-17 05:08 41.79966 123.72624 4446 ft 173 kts 230°
2026-04-17 05:09 41.79220 123.71426 4392 ft 165 kts 229°
2026-04-17 05:09 41.78472 123.70269 4205 ft 165 kts 228°
2026-04-17 05:09 41.77706 123.69102 3980 ft 168 kts 228°
2026-04-17 05:09 41.76935 123.67934 3762 ft 167 kts 228°
2026-04-17 05:10 41.76170 123.66777 3533 ft 164 kts 228°
2026-04-17 05:10 41.75430 123.65657 3324 ft 158 kts 229°
2026-04-17 05:10 41.74706 123.64562 3139 ft 161 kts 229°
2026-04-17 05:10 41.73960 123.63436 2924 ft 162 kts 228°
2026-04-17 05:11 41.73201 123.62303 2716 ft 165 kts 228°
2026-04-17 05:11 41.72452 123.61165 2563 ft 158 kts 228°
2026-04-17 05:11 41.71738 123.60077 2263 ft 154 kts 228°
2026-04-17 05:11 41.71032 123.59036 1971 ft 147 kts 228°
2026-04-17 05:12 41.70372 123.58059 1772 ft 132 kts 229°
2026-04-17 05:12 41.69809 123.57200 1678 ft 119 kts 230°
2026-04-17 05:12 41.69284 123.56345 1669 ft 120 kts 231°
2026-04-17 05:12 41.68758 123.55487 1493 ft 120 kts 228°
2026-04-17 05:13 41.68190 123.54687 1249 ft 117 kts 226°
2026-04-17 05:13 41.67642 123.53904 1108 ft 118 kts 227°
2026-04-17 05:13 41.67067 123.53043 904 ft 127 kts 230°
2026-04-17 05:13 41.66473 123.52108 700 ft 133 kts 229°
2026-04-17 05:14 41.65882 123.51191 558 ft 128 kts 229°
2026-04-17 05:14 41.65281 123.50282 370 ft 134 kts 227°
2026-04-17 05:14 41.64670 123.49370 219 ft 128 kts 228°
2026-04-17 05:14 41.64154 123.48575 199 ft 93 kts 230°
2026-04-17 05:15 41.63830 123.48088 203 ft 48 kts 227°
2026-04-17 05:15 41.63655 123.47939 206 ft 21 kts 200°
2026-04-17 05:15 41.63522 123.47920 202 ft 20 kts 130°
2026-04-17 05:15 41.63542 123.48015 203 ft 10 kts 60°
2026-04-17 05:16 41.63529 123.48094 202 ft 10 kts 137°
2026-04-17 05:16 41.63479 123.48152 208 ft 10 kts 139°
2026-04-17 05:16 41.63437 123.48241 201 ft 14 kts 89°
2026-04-17 05:16 41.63464 123.48372 209 ft 12 kts 58°
2026-04-17 05:17 41.63461 123.48466 199 ft 9 kts 139°
2026-04-17 05:17 41.63429 123.48504 201 ft 0 kts 137°